Overview Statistics Trail Chart Weather Telemetry Raw packets
 

This is the latest recevied weather packets stored in our database for station/object YD2CLX-11. If no packets are shown the sender has not sent any weather packets the latest 10 day(s).

<< 40 41 42 43 44 45 46 >>
Time Temp. Humidity Pressure Rain* Wind** Luminosity Snow
1787981155 37.22° C 34% 996.8 hPa - - - -
1787980554 36.11° C 37% 997 hPa - - - -
1787979952 37.78° C 33% 997.4 hPa - - - -
1787979351 36.67° C 33% 997.7 hPa - - - -
1787978750 37.22° C 32% 997.9 hPa - - - -
1787978149 38.33° C 33% 998 hPa - - - -
1787977548 37.22° C 35% 998.2 hPa - - - -
1787976947 35.56° C 36% 998.4 hPa - - - -
1787976344 36.11° C 36% 998.7 hPa - - - -
1787975743 35.56° C 40% 999 hPa - - - -
1787975142 36.67° C 38% 999 hPa - - - -
1787974541 36.11° C 38% 999.3 hPa - - - -
1787973939 36.67° C 38% 999.4 hPa - - - -
1787973338 35.56° C 39% 999.7 hPa - - - -
1787972737 36.11° C 38% 999.8 hPa - - - -
1787972136 35° C 42% 1000 hPa - - - -
1787971534 35.56° C 40% 1000.1 hPa - - - -
1787970933 35.56° C 40% 1000.2 hPa - - - -
1787970332 35.56° C 41% 1000.4 hPa - - - -
1787969731 35° C 42% 1000.5 hPa - - - -
1787969130 34.44° C 45% 1000.6 hPa - - - -
1787968528 34.44° C 45% 1000.8 hPa - - - -
1787967927 35° C 44% 1000.7 hPa - - - -
1787967326 33.89° C 47% 1000.8 hPa - - - -
1787966724 33.33° C 49% 1000.8 hPa - - - -

* Rain since midnight (hover to see other rain measurements)
** Current wind speed in m/s (hover to see current wind gust speed)